TWB227 RKPC-RJFF

Flight info

Callsign TWB227
Flight time 0h 39m
Altitude 28000
Route TAMNA3W TAMNA Y677 SAMDO A595 IKE
Aircraft B738/M-SDE2E3FGHIRWXY/LB1

Departure

Time 2026-05-04 12:35
Airport Jeju International Airport (RKPC)

Arrival

Time 2026-05-04 13:14
Airport Fukuoka Airport (RJFF)
Time Latitude Longitude Altitude Speed Heading
2026-05-04 11:58 33.50706 126.49183 89 ft 0 kts 149°
2026-05-04 12:19 33.50727 126.49166 89 ft 4 kts 141°
2026-05-04 12:19 33.50747 126.49144 91 ft 4 kts 130°
2026-05-04 12:19 33.50762 126.49118 90 ft 4 kts 115°
2026-05-04 12:20 33.50770 126.49089 90 ft 4 kts 84°
2026-05-04 12:20 33.50767 126.49074 88 ft 0 kts 59°
2026-05-04 12:27 33.50768 126.49076 87 ft 2 kts 58°
2026-05-04 12:27 33.50800 126.49139 89 ft 15 kts 59°
2026-05-04 12:28 33.50856 126.49254 89 ft 16 kts 62°
2026-05-04 12:28 33.50912 126.49368 87 ft 16 kts 60°
2026-05-04 12:28 33.50955 126.49452 86 ft 0 kts 56°
2026-05-04 12:29 33.50969 126.49478 87 ft 10 kts 58°
2026-05-04 12:29 33.50973 126.49486 87 ft 0 kts 58°
2026-05-04 12:30 33.50975 126.49489 86 ft 2 kts 58°
2026-05-04 12:30 33.51008 126.49551 88 ft 16 kts 57°
2026-05-04 12:30 33.51101 126.49631 87 ft 17 kts 17°
2026-05-04 12:31 33.51208 126.49674 88 ft 16 kts 20°
2026-05-04 12:31 33.51291 126.49753 88 ft 16 kts 56°
2026-05-04 12:31 33.51348 126.49827 91 ft 9 kts 11°
2026-05-04 12:31 33.51384 126.49817 89 ft 0 kts 329°
2026-05-04 12:33 33.51398 126.49808 92 ft 5 kts 330°
2026-05-04 12:33 33.51444 126.49769 91 ft 11 kts 313°
2026-05-04 12:34 33.51448 126.49670 92 ft 17 kts 243°
2026-05-04 12:34 33.51326 126.49432 90 ft 65 kts 238°
2026-05-04 12:34 33.50970 126.48745 92 ft 126 kts 238°
2026-05-04 12:34 33.50418 126.47706 240 ft 160 kts 238°
2026-05-04 12:35 33.49847 126.46561 905 ft 164 kts 239°
2026-05-04 12:35 33.49203 126.45313 1240 ft 190 kts 240°
2026-05-04 12:35 33.48464 126.43881 1470 ft 214 kts 239°
2026-05-04 12:35 33.47652 126.42306 1768 ft 228 kts 240°
2026-05-04 12:36 33.46796 126.40645 2074 ft 244 kts 240°
2026-05-04 12:36 33.45878 126.38863 2528 ft 255 kts 239°
2026-05-04 12:36 33.44937 126.37037 3280 ft 259 kts 239°
2026-05-04 12:36 33.43978 126.35206 4048 ft 262 kts 235°
2026-05-04 12:37 33.42586 126.33782 4735 ft 270 kts 204°
2026-05-04 12:37 33.40741 126.33367 5486 ft 274 kts 179°
2026-05-04 12:37 33.38838 126.33643 6229 ft 278 kts 172°
2026-05-04 12:37 33.36911 126.34035 6932 ft 283 kts 172°
2026-05-04 12:38 33.34958 126.34424 7659 ft 286 kts 172°
2026-05-04 12:38 33.32992 126.34848 8402 ft 290 kts 165°
2026-05-04 12:38 33.31234 126.36039 9120 ft 298 kts 136°
2026-05-04 12:38 33.30112 126.38125 9894 ft 302 kts 107°
2026-05-04 12:39 33.29878 126.39767 10305 ft 307 kts 90°
2026-05-04 12:39 33.30163 126.43291 10593 ft 337 kts 80°
2026-05-04 12:39 33.30543 126.46134 10921 ft 354 kts 79°
2026-05-04 12:39 33.30933 126.49079 11479 ft 362 kts 80°
2026-05-04 12:40 33.31300 126.52082 12119 ft 369 kts 81°
2026-05-04 12:40 33.31539 126.54146 12578 ft 372 kts 81°
2026-05-04 12:40 33.31892 126.57226 13255 ft 377 kts 80°
2026-05-04 12:40 33.32644 126.60237 13891 ft 380 kts 59°
2026-05-04 12:41 33.34080 126.62885 14597 ft 381 kts 53°
2026-05-04 12:41 33.35572 126.65481 15312 ft 385 kts 53°
2026-05-04 12:41 33.37074 126.68150 16014 ft 389 kts 53°
2026-05-04 12:41 33.38601 126.70906 16711 ft 394 kts 54°
2026-05-04 12:42 33.39880 126.73778 17341 ft 404 kts 71°
2026-05-04 12:42 33.40395 126.77099 18042 ft 409 kts 82°
2026-05-04 12:42 33.40751 126.80494 18684 ft 413 kts 82°
2026-05-04 12:42 33.41141 126.83972 19236 ft 418 kts 81°
2026-05-04 12:43 33.41557 126.87432 19793 ft 423 kts 81°
2026-05-04 12:43 33.41988 126.90926 20381 ft 426 kts 81°
2026-05-04 12:43 33.42424 126.94459 20945 ft 431 kts 81°
2026-05-04 12:43 33.42857 126.97980 21467 ft 435 kts 81°
2026-05-04 12:44 33.43298 127.01586 21976 ft 441 kts 81°
2026-05-04 12:44 33.43749 127.05284 22505 ft 445 kts 81°
2026-05-04 12:44 33.44190 127.08916 23025 ft 449 kts 81°
2026-05-04 12:44 33.44647 127.12684 23545 ft 453 kts 81°
2026-05-04 12:45 33.45099 127.16429 23983 ft 457 kts 81°
2026-05-04 12:45 33.45551 127.20179 24317 ft 464 kts 82°
2026-05-04 12:45 33.46014 127.24028 24637 ft 470 kts 82°
2026-05-04 12:45 33.46482 127.27922 24948 ft 476 kts 82°
2026-05-04 12:46 33.46954 127.31869 25288 ft 481 kts 82°
2026-05-04 12:46 33.47429 127.35862 25634 ft 486 kts 82°
2026-05-04 12:46 33.47907 127.39891 26000 ft 490 kts 83°
2026-05-04 12:46 33.48383 127.43929 26437 ft 492 kts 83°
2026-05-04 12:47 33.48860 127.47990 26907 ft 493 kts 83°
2026-05-04 12:47 33.49340 127.52079 27307 ft 497 kts 83°
2026-05-04 12:47 33.49820 127.56184 27770 ft 498 kts 84°
2026-05-04 12:47 33.50301 127.60300 28160 ft 501 kts 84°
2026-05-04 12:48 33.50783 127.64454 28138 ft 504 kts 84°
2026-05-04 12:48 33.51741 127.72701 28120 ft 495 kts 84°
2026-05-04 12:49 33.52686 127.80909 28153 ft 499 kts 84°
2026-05-04 12:49 33.53630 127.89162 28150 ft 501 kts 84°
2026-05-04 12:50 33.54574 127.97456 28125 ft 501 kts 84°
2026-05-04 12:50 33.55509 128.05714 28140 ft 499 kts 84°
2026-05-04 12:51 33.56435 128.13947 28141 ft 497 kts 84°
2026-05-04 12:51 33.57351 128.22145 28123 ft 495 kts 85°
2026-05-04 12:51 33.57805 128.26224 27799 ft 492 kts 85°
2026-05-04 12:52 33.58253 128.30259 27484 ft 484 kts 84°
2026-05-04 12:52 33.58700 128.34241 27159 ft 478 kts 84°
2026-05-04 12:52 33.59149 128.38102 26791 ft 472 kts 83°
2026-05-04 12:52 33.59609 128.41999 26353 ft 469 kts 83°
2026-05-04 12:53 33.60065 128.45849 25931 ft 465 kts 83°
2026-05-04 12:53 33.60515 128.49673 25504 ft 461 kts 83°
2026-05-04 12:53 33.60958 128.53458 25083 ft 456 kts 82°
2026-05-04 12:53 33.61395 128.57213 24665 ft 452 kts 82°
2026-05-04 12:54 33.61826 128.60935 24247 ft 448 kts 82°
2026-05-04 12:54 33.62252 128.64624 23838 ft 444 kts 82°
2026-05-04 12:54 33.62672 128.68280 23339 ft 440 kts 81°
2026-05-04 12:54 33.63088 128.71904 22892 ft 435 kts 81°
2026-05-04 12:55 33.63497 128.75474 22481 ft 430 kts 81°
2026-05-04 12:55 33.63900 128.79009 22079 ft 425 kts 81°
2026-05-04 12:55 33.64298 128.82503 21650 ft 421 kts 81°
2026-05-04 12:55 33.64691 128.85959 21244 ft 416 kts 81°
2026-05-04 12:56 33.65079 128.89384 20831 ft 412 kts 81°
2026-05-04 12:56 33.65462 128.92774 20444 ft 408 kts 81°
2026-05-04 12:56 33.65841 128.96134 20044 ft 404 kts 81°
2026-05-04 12:56 33.66211 128.99425 19656 ft 401 kts 81°
2026-05-04 12:57 33.66582 129.02729 19269 ft 398 kts 81°
2026-05-04 12:57 33.66954 129.06049 18877 ft 395 kts 81°
2026-05-04 12:57 33.67318 129.09306 18492 ft 392 kts 81°
2026-05-04 12:57 33.67677 129.12532 18055 ft 389 kts 81°
2026-05-04 12:58 33.68030 129.15706 17640 ft 387 kts 80°
2026-05-04 12:58 33.68383 129.18886 17244 ft 383 kts 80°
2026-05-04 12:58 33.68732 129.22042 16874 ft 379 kts 80°
2026-05-04 12:58 33.69077 129.25167 16491 ft 376 kts 80°
2026-05-04 12:59 33.69418 129.28264 16119 ft 372 kts 80°
2026-05-04 12:59 33.69755 129.31320 15856 ft 365 kts 80°
2026-05-04 12:59 33.70086 129.34322 15599 ft 360 kts 80°
2026-05-04 12:59 33.70413 129.37288 15352 ft 358 kts 80°
2026-05-04 13:00 33.70738 129.40240 15098 ft 355 kts 80°
2026-05-04 13:00 33.71061 129.43171 14832 ft 352 kts 80°
2026-05-04 13:00 33.71381 129.46088 14414 ft 352 kts 79°
2026-05-04 13:00 33.71700 129.49003 14032 ft 351 kts 79°
2026-05-04 13:01 33.72016 129.51903 13622 ft 350 kts 80°
2026-05-04 13:01 33.72329 129.54778 13351 ft 345 kts 80°
2026-05-04 13:01 33.72638 129.57623 13086 ft 342 kts 80°
2026-05-04 13:01 33.72945 129.60459 12651 ft 343 kts 79°
2026-05-04 13:02 33.73254 129.63306 12220 ft 343 kts 79°
2026-05-04 13:02 33.73559 129.66132 11882 ft 339 kts 80°
2026-05-04 13:02 33.73861 129.68938 11506 ft 338 kts 80°
2026-05-04 13:02 33.74161 129.71730 11125 ft 337 kts 80°
2026-05-04 13:03 33.74461 129.74522 10783 ft 335 kts 80°
2026-05-04 13:03 33.74751 129.77247 10665 ft 324 kts 80°
2026-05-04 13:03 33.75024 129.79911 10503 ft 317 kts 82°
2026-05-04 13:03 33.75060 129.82530 10389 ft 311 kts 92°
2026-05-04 13:04 33.74757 129.85079 10226 ft 305 kts 100°
2026-05-04 13:04 33.74298 129.87555 9964 ft 304 kts 102°
2026-05-04 13:04 33.73816 129.89991 9658 ft 303 kts 104°
2026-05-04 13:04 33.73213 129.92406 9412 ft 300 kts 106°
2026-05-04 13:05 33.72579 129.94780 9149 ft 297 kts 107°
2026-05-04 13:05 33.71944 129.97121 8900 ft 294 kts 107°
2026-05-04 13:05 33.71311 129.99441 8643 ft 290 kts 107°
2026-05-04 13:05 33.70683 130.01724 8383 ft 285 kts 107°
2026-05-04 13:06 33.70064 130.03954 8098 ft 279 kts 107°
2026-05-04 13:06 33.69398 130.06140 7635 ft 279 kts 110°
2026-05-04 13:06 33.68638 130.08276 7187 ft 277 kts 111°
2026-05-04 13:06 33.67865 130.10376 6818 ft 273 kts 111°
2026-05-04 13:07 33.67096 130.12430 6513 ft 266 kts 111°
2026-05-04 13:07 33.66432 130.14458 6220 ft 258 kts 108°
2026-05-04 13:07 33.65820 130.16498 5840 ft 262 kts 107°
2026-05-04 13:07 33.65209 130.18553 5455 ft 260 kts 107°
2026-05-04 13:08 33.64616 130.20599 4976 ft 260 kts 107°
2026-05-04 13:08 33.64031 130.22663 4464 ft 262 kts 107°
2026-05-04 13:08 33.63451 130.24742 4041 ft 263 kts 107°
2026-05-04 13:08 33.62864 130.26863 3413 ft 272 kts 107°
2026-05-04 13:09 33.62271 130.29041 2789 ft 277 kts 107°
2026-05-04 13:09 33.61698 130.31220 2528 ft 266 kts 107°
2026-05-04 13:09 33.61174 130.33253 2540 ft 245 kts 107°
2026-05-04 13:09 33.60682 130.35150 2293 ft 232 kts 107°
2026-05-04 13:10 33.60203 130.36945 2143 ft 216 kts 112°
2026-05-04 13:10 33.59529 130.38495 2127 ft 205 kts 127°
2026-05-04 13:10 33.58609 130.39750 2148 ft 199 kts 140°
2026-05-04 13:10 33.57558 130.40758 2147 ft 191 kts 150°
2026-05-04 13:11 33.56445 130.41588 2010 ft 187 kts 152°
2026-05-04 13:11 33.55360 130.42372 1865 ft 177 kts 154°
2026-05-04 13:11 33.54254 130.42876 1718 ft 165 kts 169°
2026-05-04 13:11 33.53154 130.43163 1760 ft 158 kts 172°
2026-05-04 13:12 33.52139 130.43634 1723 ft 163 kts 144°
2026-05-04 13:12 33.51548 130.44783 1398 ft 168 kts 101°
2026-05-04 13:12 33.51695 130.46132 1036 ft 163 kts 62°
2026-05-04 13:12 33.52448 130.47065 758 ft 155 kts 28°
2026-05-04 13:13 33.53438 130.47434 655 ft 150 kts
2026-05-04 13:13 33.54493 130.47421 711 ft 153 kts 347°
2026-05-04 13:13 33.55523 130.47081 562 ft 157 kts 337°
2026-05-04 13:13 33.56520 130.46479 376 ft 155 kts 330°
2026-05-04 13:14 33.57418 130.45871 132 ft 141 kts 329°
2026-05-04 13:14 33.58214 130.45323 34 ft 115 kts 330°
2026-05-04 13:14 33.58713 130.44973 34 ft 52 kts 332°
2026-05-04 13:14 33.59003 130.44787 27 ft 45 kts 330°
2026-05-04 13:15 33.59146 130.44621 28 ft 25 kts 306°
2026-05-04 13:15 33.59223 130.44454 28 ft 16 kts 291°
2026-05-04 13:15 33.59187 130.44338 29 ft 16 kts 238°
2026-05-04 13:15 33.59123 130.44328 29 ft 10 kts 154°
2026-05-04 13:16 33.59066 130.44367 28 ft 9 kts 149°
2026-05-04 13:16 33.59008 130.44397 29 ft 9 kts 185°
2026-05-04 13:16 33.58970 130.44338 29 ft 9 kts 242°
2026-05-04 13:16 33.58939 130.44272 28 ft 8 kts 239°
2026-05-04 13:17 33.58934 130.44261 28 ft 0 kts 239°